Regional Weather Roundup
Issued by NWS Upton, NY

Current Version | Previous Version | Graphics & Text | Print | Product List | Glossary Off
Versions: 1 2 3 4 5 6 7 8 9 10 11 12 13 14 15 16 17 18 19 20 21 22 23 24 25 26 27 28

000
ASUS41 KOKX 291705
RWROKX

REGIONAL WEATHER ROUNDUP
NATIONAL WEATHER SERVICE NEW YORK NY
100 PM EDT MON AUG 29 2016

NOTE: "FAIR" INDICATES FEW OR NO CLOUDS BELOW 12,000 FEET WITH NO
SIGNIFICANT WEATHER AND/OR OBSTRUCTIONS TO VISIBILITY.

NYZ071-072-176-178-NJZ106-104-291800-
NEW YORK CITY METRO AREA

CITY           SKY/WX    TMP DP  RH WIND       PRES   REMARKS
Central Park   SUNNY     89  63  41 NW8       30.13S HX  90
LaGuardia APRT MOSUNNY   89  65  44 NW12      30.09S HX  91
Kennedy INTL   MOSUNNY   88  65  46 N10G20    30.10S HX  90
Newark/Liberty MOSUNNY   91  64  40 NW12G22   30.09F HX  92
Bronx Bot Gard   N/A     88  64  45 W2        30.12R
Wall St Helipt SUNNY     90  64  43 W7        30.10F HX  91
Teterboro      SUNNY     88  63  43 NW8G21    30.09
$$

NYZ177-179-078>081-291800-
LONG ISLAND NEW YORK

CITY           SKY/WX    TMP DP  RH WIND       PRES   REMARKS
Farmingdale    SUNNY     89  65  44 N10G17    30.09S HX  91
MacArthur/ISP  MOSUNNY   88  67  49 N12       30.08F HX  91
Shirley        SUNNY     88  66  48 NW10      30.09S HX  90
Riverhead      NOT AVBL
Westhampton    SUNNY     87  65  47 NW13      30.09F
Southampton      N/A     84  70  61 N8        30.04S
Bridgehampton    N/A     86  72  62 E1        30.06F HX  92
East Hampton   FAIR      83  68  60 N9        30.07S
Montauk          N/A     82  69  64 W9        30.07F
$$

NYZ052-065-067-291800-
HUDSON VALLEY

CITY           SKY/WX    TMP DP  RH WIND       PRES   REMARKS
White Plains   MOSUNNY   87  66  49 NW9       30.10F
Newburgh       MOSUNNY   84  64  51 N7        30.14F
Montgomery     SUNNY     86  61  42 W10       30.12F
Poughkeepsie   MOSUNNY   84  61  45 W6        30.10F
Albany         MOSUNNY   82  60  47 NW10      30.12
$$

NJZ001-105-106-008-010-013-015-019>022-104-291800-
NEW JERSEY

CITY           SKY/WX    TMP DP  RH WIND       PRES   REMARKS
Newark/Liberty MOSUNNY   91  64  40 NW12G22   30.09F HX  92
Teterboro      SUNNY     88  63  43 NW8G21    30.09
Caldwell       SUNNY     87  62  43 VRB7G16   30.12S
Morristown     MOSUNNY   88  66  48 N5G14     30.12S HX  90
Somerville     SUNNY     88  66  48 N5        30.10F HX  90
Linden         FAIR      89  64  42 NW7       30.11F HX  90
Sussex         SUNNY     83  62  49 NW8       30.15S
Abdover          N/A     83  63  50 N9        30.16R
Trenton        MOSUNNY   88  68  51 NW6       30.11F HX  91
Millville      MOSUNNY   86  71  60 VRB5      30.13F HX  91
Atlantic City  MOSUNNY   88  66  48 NW7       30.12  HX  90
Wrightstown    MOSUNNY   89  70  53 VRB7      30.08F HX  93
Toms River       N/A     89  69  51 VRB7      30.11F HX  93
Belmar         SUNNY     90  69  50 W10       30.11F HX  94
$$

PAZ047>061-062-071-291800-
EASTERN PENNSYLVANIA

CITY           SKY/WX    TMP DP  RH WIND       PRES   REMARKS
Philadelphia   PTSUNNY   88  68  51 NW8       30.12F HX  91
Allentown      SUNNY     87  61  41 N9G18     30.15
Scranton       SUNNY     82  60  47 N10       30.20F
$$

CTZ002-004>006-009-010-012-RIZ004-006-007-MAZ004-011-015-291800-
SOUTHERN NEW ENGLAND
 IN CT

CITY           SKY/WX    TMP DP  RH WIND       PRES   REMARKS
Bradley INTL   MOSUNNY   88  58  36 NW14G23   30.07
Hartford       MOSUNNY   88  59  37 W9G21     30.06F
Danbury        SUNNY     84  60  44 N9        30.12F
Wtrbury/Oxford MOSUNNY   82  59  44 N9G17     30.14F
Bridgeport     MOSUNNY   89  64  43 NW14G20   30.07F HX  90
Meriden        SUNNY     89  57  33 NW13      30.07F
New Haven      MOSUNNY   87  63  44 NW8       30.07F
Chester        FAIR      84  61  45 NW10G17   30.08F
Groton         SUNNY     89  65  44 N9        30.04F HX  91
Wilimantic     SUNNY     86  61  42 NW10G20   30.07F

 IN RI

CITY           SKY/WX    TMP DP  RH WIND       PRES   REMARKS
Providence     MOSUNNY   88  59  37 NW12G22   30.03
Block Island   MOSUNNY   81  69  67 W13       30.06F
Westerly       SUNNY     87  61  41 NW9G17    30.05F
 IN MA

CITY           SKY/WX    TMP DP  RH WIND       PRES   REMARKS
Boston         MOSUNNY   88  59  37 W16G31    30.01S
Worcester      MOSUNNY   81  55  40 NW18      30.09S
Westfield      MOSUNNY   86  58  38 NW13      30.07F
Provincetown   SUNNY     82  69  64 W12       30.02S
Nantucket      MOSUNNY   77  68  73 W17G25    30.03F
$$

ANZ330-335-338-340-345-350-353-355-291800-
COASTAL MARINE OBSERVATIONS


STATION/POSITION TIME  SKY/WX   TEMP    WIND        PRES    VSBY  WAVE
                                AIR SEA DIR/SP/G                  HT/PER
                 (UTC)          (F)     (DEG/KT/KT) (MB)    (MI)  (FT/S)
NY HARB ENTRANCE 1550            78 77  270/  6/  8 1019.3          3/14
20S FIRE ISLAND  1550            75 75  240/  8/ 10 1019.1          3/14
GREAT SOUTH BAY  1600            80 80  240/  8/  8   N/A
23 SSW MONTAUK P 1550            75 76  250/ 12/ 14 1019.1          3/13
15 E BARNEGAT LI 1600               77                N/A           3/13
HUDSON CANYON    1550            77 79              1019.9          3/14
KINGS POINT      1600            83 76              1019.0
EXECUTION ROCKS  1600            84     330/  6/ 10   N/A
CENTRAL LI SOUND 1600            76 76  250/  8/ 10   N/A           1/ 3
EASTERN LI SOUND 1600            74 70  250/ 12/ 14   N/A
ROBBINS REEF     1606            84     350/ 10/ 13 1018.6
$$


>>>>>>>>>>>>>>>>>>>>>>>>>>>> KEY <<<<<<<<<<<<<<<<<<<<<<<<<<<
>                                                          <
>     SKY/WX - Sky Condition/Present Weather               <
>     TMP    - Temperature in Fahrenheit                   <
>     DP     - Dew Point in Fahrenheit                     <
>     RH     - Relative Humidity in Percent                <
>     WIND   - Direction (from) and Speed in MPH           <
>     PRES   - Mean Sea Level Pressure (inches of Hg)      <
>     WCI    - Wind Chill Index                            <
>     VSB    - VISIBILITY IN MILES                         <
>     HX     - HEAT INDEX                                  <
>     TC     - TEMPERATURE IN CELSIUS                      <
>     VRB    - VARIABLE WIND DIRECTION                     <
>                                                          <
>>>>>>>>>>>>>>>>>>>>>>>>>>>> KEY <<<<<<<<<<<<<<<<<<<<<<<<<<<




USA.gov is the U.S. government's official web portal to all federal, state and local government web resources and services.